Wind_Speed
3 1 2 3 3 3 4 4 5 5 5 6 6 6 6 7 7 6 6 4 2 2 4 7 9 11 11 12 13 13 14 14 13 11 10 9 8 7 6 4 3 3 3 3 3 4 6 7 10
2 1 1 2 3 3 4 5 6 7 8 8 8 8 7 8 8 7 5 3 1 0 2 4 7 9 10 11 12 13 13 13 13 12 10 9 8 7 7 5 4 4 3 3 3 4 3 5 9
2 1 1 1 2 3 4 6 8 9 9 9 9 9 10 10 10 8 6 3 1 1 2 2 5 7 8 10 11 12 13 13 12 12 10 9 8 8 7 6 5 4 4 3 3 3 2 3 7
3 2 1 2 3 3 4 6 8 9 10 10 10 11 12 12 12 10 8 4 2 1 2 1 3 5 7 8 9 11 12 12 12 12 10 9 8 8 8 7 5 4 4 3 3 2 1 2 4
5 4 2 2 2 2 4 6 7 9 11 11 11 12 13 13 13 11 9 7 3 1 1 0 2 3 5 7 8 9 10 11 12 11 10 9 9 8 8 7 6 5 4 4 3 2 2 2 3
7 5 3 2 2 2 3 4 6 9 11 12 12 13 13 14 13 12 11 9 6 3 1 2 2 3 4 6 7 8 9 10 10 11 11 10 9 8 8 7 6 5 4 4 3 3 2 3 4
9 7 5 3 3 2 2 3 5 7 9 11 12 13 13 14 13 13 12 10 8 5 3 4 4 5 5 6 6 7 8 9 9 10 10 10 9 8 8 7 7 6 5 4 3 3 3 4 5
10 8 7 4 4 3 2 2 4 5 7 9 10 11 12 13 13 13 12 10 9 7 5 6 6 6 6 7 7 7 8 8 9 9 9 9 9 8 7 7 7 6 5 4 3 3 4 5 6
11 9 8 6 5 3 1 1 2 4 5 7 9 10 11 12 12 12 11 10 9 8 8 8 8 8 8 8 9 9 9 9 9 9 9 9 8 8 7 6 6 6 5 4 3 4 5 7 7
12 11 9 8 5 4 3 2 2 3 5 6 7 9 10 11 11 11 11 10 10 9 9 9 10 10 10 10 11 11 11 11 10 9 9 9 8 8 7 6 5 5 5 4 4 4 6 7 8
13 12 11 10 8 7 6 6 6 7 8 8 9 10 11 12 12 12 12 11 11 11 10 10 11 12 13 13 13 13 12 12 12 11 10 9 8 8 7 6 5 5 4 4 4 5 6 7 8
15 14 14 13 13 12 12 11 10 11 12 12 12 12 13 14 14 14 14 14 13 13 13 13 13 14 15 15 15 15 15 14 13 12 11 10 10 9 8 6 6 5 5 4 5 5 6 7 8
16 16 16 16 17 17 16 15 15 15 15 15 15 15 15 15 16 17 17 17 16 15 15 15 15 15 16 16 16 16 16 15 14 13 12 12 11 10 9 8 7 6 6 5 5 6 7 7 9
18 18 18 19 20 20 19 19 20 20 19 18 18 18 17 17 18 18 18 18 18 18 17 17 17 17 17 17 17 17 17 16 15 14 13 13 13 12 12 10 9 8 7 7 7 7 8 8 9
20 20 21 22 23 23 23 22 24 24 23 23 22 21 20 19 19 20 20 20 19 19 19 19 18 18 18 18 18 18 17 17 16 15 14 14 14 14 14 13 12 11 10 9 9 10 10 10 10
23 23 24 25 27 27 27 25 27 28 27 27 27 25 24 23 22 22 22 22 21 20 19 20 19 19 19 18 18 18 18 17 16 16 16 15 15 15 15 16 15 14 14 13 12 12 13 12 12
26 27 27 29 30 30 31 30 31 32 32 32 31 30 28 27 25 25 24 23 22 21 20 19 19 20 20 19 19 19 18 17 16 16 17 16 17 17 17 17 17 17 17 17 16 15 15 14 14
29 30 31 32 33 33 34 34 34 36 36 36 36 35 33 31 29 28 27 25 24 22 21 20 20 21 21 21 21 21 20 19 18 18 18 18 18 19 19 19 19 19 19 20 20 19 18 17 17
31 33 34 35 37 37 37 37 38 40 40 40 40 39 38 36 33 32 31 29 27 25 23 22 21 22 23 23 22 22 22 21 20 20 19 20 20 21 21 21 21 21 21 22 22 21 21 20 20
32 34 36 37 38 39 38 38 40 41 42 42 42 42 41 39 37 35 34 32 30 28 26 24 24 24 25 25 25 25 24 23 23 22 22 22 22 22 22 22 22 23 23 23 23 23 24 23 23
33 35 36 37 38 39 39 38 39 40 40 41 41 41 41 40 39 38 36 34 32 31 29 27 27 27 28 28 28 27 26 26 25 24 23 23 22 23 22 23 23 24 24 25 25 26 26 26 25
32 34 36 36 37 37 37 37 35 35 35 36 37 37 37 38 37 37 37 35 34 33 32 31 31 30 31 32 31 30 29 28 26 24 24 23 23 24 24 24 24 24 25 26 26 27 26 27 27
33 34 35 36 36 36 34 35 33 32 32 33 34 35 35 35 35 35 35 35 35 34 35 34 33 35 35 35 35 34 30 27 24 23 23 23 23 23 24 24 25 25 26 26 26 26 27 28 28
37 37 37 37 37 37 34 34 34 32 30 30 31 32 33 33 33 33 34 35 35 36 37 36 37 38 37 38 39 34 26 23 22 22 21 22 22 23 23 24 25 26 26 26 26 25 26 27 28
41 41 41 41 39 37 34 33 32 29 28 27 27 28 29 31 31 31 32 34 35 36 36 36 39 38 39 38 35 27 22 19 19 19 20 21 22 22 23 24 25 25 25 25 25 25 26 26 27
41 41 41 41 39 36 32 30 29 27 26 26 26 26 27 28 29 30 31 32 33 35 35 36 37 37 35 32 28 22 18 17 17 17 18 20 21 22 23 23 23 24 24 24 24 24 25 25 26
39 38 38 38 36 33 31 28 27 26 25 24 25 24 24 26 27 28 28 28 29 31 33 34 34 32 29 24 20 18 16 17 17 18 19 21 21 22 23 23 23 23 23 23 23 23 24 24 24
34 32 30 30 29 27 25 23 23 21 21 21 21 21 20 21 22 24 24 25 26 26 27 28 27 24 21 17 16 16 16 17 17 18 20 21 22 23 24 24 24 24 23 23 23 22 23 23 24
25 23 21 20 19 19 19 18 15 15 16 16 16 16 15 14 16 16 18 19 20 21 18 18 17 16 15 15 14 14 15 17 18 20 21 22 23 24 25 25 25 24 24 24 23 23 22 23 23
19 15 12 10 10 12 13 12 11 11 10 9 8 9 10 10 10 10 12 13 15 15 12 11 11 11 11 11 13 14 16 18 20 22 23 23 24 25 25 25 25 25 24 24 24 23 22 22 22
Wind_Direction
141 111 75 66 63 59 33 27 29 30 26 20 15 14 0 347 352 350 348 356 10 46 51 45 40 37 38 37 38 38 38 40 41 40 37 31 27 23 22 19 6 346 325 303 284 275 261 241 229
144 108 84 70 57 44 52 54 52 50 46 37 28 24 16 6 6 4 358 350 345 130 80 53 41 36 34 34 34 34 36 38 38 37 35 33 30 25 22 19 11 2 345 328 308 292 273 237 225
181 164 124 67 49 53 68 70 66 61 55 45 35 30 26 22 21 16 10 0 354 172 138 69 43 36 32 30 29 29 31 33 34 34 33 31 30 27 24 21 15 7 358 342 326 316 287 237 227
203 193 162 95 73 86 88 82 73 64 57 48 39 33 30 27 26 23 20 15 16 151 161 91 35 31 28 27 24 24 26 28 30 30 30 29 27 26 25 22 18 9 0 353 341 322 292 258 228
215 210 188 124 96 109 98 85 70 60 53 48 42 37 32 29 27 24 22 23 24 42 192 282 353 12 17 19 18 19 21 22 24 24 25 26 27 27 27 27 22 12 357 347 343 321 295 266 234
226 228 212 174 173 164 122 88 68 56 48 43 39 35 31 30 28 24 23 23 21 10 314 299 314 337 356 6 10 11 14 16 18 19 20 21 22 26 27 29 24 15 2 344 335 317 284 257 238
234 242 237 214 208 209 155 95 68 54 45 38 34 27 27 28 28 23 21 21 16 360 326 302 301 311 327 343 354 358 0 4 6 9 12 14 17 21 26 27 25 18 4 345 326 309 277 256 245
242 250 254 237 230 223 158 79 54 44 34 30 26 19 19 23 23 20 16 14 11 358 335 310 300 301 308 320 331 337 341 345 349 353 358 3 10 15 21 24 23 19 8 349 321 289 267 256 249
246 253 263 258 257 230 208 38 28 22 12 11 9 7 7 8 10 9 6 4 0 352 338 322 306 298 299 304 311 315 320 326 331 336 342 350 359 6 10 15 19 16 8 352 320 281 263 256 251
249 255 263 264 259 249 260 273 309 330 332 341 344 346 348 350 350 351 350 350 348 343 335 325 311 300 295 296 299 303 306 309 314 319 325 332 342 352 356 359 7 9 1 345 316 287 272 265 258
250 254 259 260 263 265 271 275 291 301 307 314 322 327 329 330 331 331 332 333 333 332 329 322 313 302 296 294 294 296 298 297 300 304 308 316 325 333 342 348 352 352 344 329 312 294 281 273 266
250 254 256 262 268 271 275 278 286 292 299 305 310 313 314 316 317 319 320 322 323 323 321 317 311 304 297 293 292 292 292 291 292 294 296 299 308 315 321 332 338 338 331 319 308 298 288 280 272
249 254 257 261 265 270 273 278 283 284 288 294 299 301 302 303 306 308 309 312 315 316 314 311 306 302 296 292 290 289 289 289 289 290 288 288 292 298 302 309 316 321 322 316 305 296 290 283 277
250 254 257 259 263 268 272 278 280 282 283 286 289 290 293 295 298 299 300 302 306 308 308 305 301 299 295 290 288 286 286 286 285 286 284 283 282 285 287 289 295 304 312 313 304 299 292 286 281
252 255 257 259 263 266 269 273 276 277 279 280 281 282 285 286 289 290 291 293 297 299 301 300 298 296 293 289 286 284 282 281 281 282 281 280 277 277 280 282 285 292 299 304 301 297 295 288 282
255 257 259 262 264 266 268 269 272 274 275 276 277 278 280 281 281 281 282 284 288 291 293 294 294 292 290 286 283 281 279 277 278 279 279 280 277 276 279 279 278 281 286 291 293 291 291 289 285
255 258 260 263 265 267 269 269 270 272 273 273 274 275 277 278 278 278 277 279 282 286 287 288 287 286 285 282 279 277 276 275 275 276 276 277 277 277 276 276 273 275 278 280 283 284 286 287 286
259 261 262 264 266 268 270 271 272 271 271 272 273 273 274 274 275 274 275 276 279 283 283 282 281 280 280 278 275 273 272 272 272 273 274 275 276 275 275 275 271 273 274 275 279 282 284 283 282
264 266 267 268 269 269 270 271 271 271 271 271 271 271 272 272 271 272 273 274 274 273 276 276 276 275 274 273 272 270 270 269 270 270 271 272 274 275 275 272 271 272 273 274 276 279 282 281 278
267 268 269 269 270 271 271 271 271 271 271 272 271 271 271 270 269 268 269 270 270 269 268 270 270 270 270 269 269 267 266 267 267 268 267 269 270 272 271 270 270 271 272 273 275 277 278 278 276
270 271 271 271 272 273 272 272 272 273 273 273 272 271 270 268 267 265 265 264 263 264 263 263 264 266 267 266 264 262 262 262 263 265 267 268 269 270 269 269 269 270 271 272 274 274 275 275 275
274 274 274 274 274 274 274 274 273 274 275 275 274 273 271 268 266 263 260 258 258 257 255 255 257 260 260 260 259 256 255 255 257 262 265 267 268 269 269 270 270 271 272 273 272 273 273 274 274
278 277 276 276 276 276 277 279 278 278 278 278 277 275 273 269 264 260 256 254 253 251 251 252 251 253 253 254 256 252 251 251 255 260 264 266 268 270 272 273 274 276 276 276 275 274 272 272 271
282 280 279 278 277 278 280 281 281 282 281 279 277 275 273 268 263 257 253 250 249 248 248 248 250 249 247 250 251 249 248 252 256 259 264 267 269 272 274 276 277 279 279 279 278 276 273 272 272
285 284 282 280 279 281 281 281 282 283 282 279 277 275 271 267 260 254 250 247 246 246 247 247 248 246 245 245 247 249 251 253 257 262 267 270 272 274 278 280 281 281 281 281 280 278 275 272 271
286 283 282 282 282 283 283 282 282 283 282 280 278 276 270 264 258 253 248 246 245 245 246 247 247 245 243 245 248 252 254 257 260 265 270 274 277 281 283 285 285 284 283 282 281 279 276 274 273
289 284 280 278 277 277 278 279 279 281 281 280 280 277 273 266 257 252 248 245 243 244 246 246 248 247 247 248 252 255 259 262 267 273 276 280 284 286 288 288 288 286 285 284 283 280 278 276 274
297 291 284 277 274 273 272 271 274 277 280 281 281 279 274 269 256 252 250 248 248 245 246 250 245 240 238 246 252 257 262 267 273 278 281 284 287 288 288 288 287 286 285 285 283 281 279 278 275
308 300 289 278 270 265 262 259 268 277 280 281 280 277 271 265 266 256 250 249 247 245 242 233 230 228 234 242 249 258 268 274 279 281 283 285 287 286 285 284 284 284 284 284 283 280 279 278 276
333 322 305 284 262 252 253 257 258 275 283 279 281 276 267 269 273 265 257 253 246 238 228 219 227 231 236 248 258 268 277 281 283 282 283 284 285 284 282 282 282 282 283 283 282 281 278 277 274
Height
5890 5891 5892 5893 5894 5893 5892 5892 5891 5891 5891 5891 5890 5890 5890 5890 5890 5892 5890 5888 5888 5888 5888 5888 5888 5888 5887 5886 5885 5885 5883 5883 5882 5881 5881 5881 5881 5881 5881 5881 5882 5882 5882 5882 5883 5883 5884 5884 5886
5890 5891 5893 5894 5894 5894 5893 5893 5892 5892 5892 5891 5891 5890 5890 5890 5889 5889 5888 5888 5888 5888 5889 5889 5889 5888 5888 5887 5886 5886 5884 5884 5883 5882 5882 5881 5881 5881 5881 5881 5881 5882 5882 5882 5882 5882 5883 5883 5884
5891 5892 5894 5894 5894 5895 5894 5893 5893 5893 5893 5892 5892 5891 5890 5890 5889 5888 5888 5888 5888 5888 5888 5889 5889 5889 5888 5888 5887 5886 5885 5885 5884 5883 5882 5882 5881 5881 5881 5881 5881 5881 5881 5881 5881 5882 5882 5882 5883
5891 5893 5895 5895 5895 5895 5895 5894 5894 5894 5894 5893 5892 5891 5891 5890 5889 5888 5888 5887 5888 5888 5889 5889 5889 5889 5889 5888 5888 5887 5886 5885 5885 5884 5883 5882 5882 5881 5881 5880 5881 5881 5881 5881 5881 5881 5881 5882 5882
5892 5893 5895 5895 5896 5896 5896 5895 5895 5895 5894 5894 5893 5892 5891 5891 5889 5888 5888 5888 5888 5888 5889 5889 5889 5889 5889 5889 5888 5888 5887 5886 5885 5884 5884 5883 5882 5881 5881 5880 5880 5880 5880 5880 5880 5880 5881 5881 5882
5892 5893 5895 5896 5896 5897 5897 5896 5895 5895 5895 5894 5894 5893 5892 5891 5890 5889 5888 5888 5888 5889 5889 5890 5890 5890 5889 5889 5889 5888 5887 5887 5886 5885 5884 5883 5882 5881 5881 5880 5880 5879 5879 5880 5880 5880 5880 5880 5881
5892 5893 5894 5895 5896 5897 5898 5897 5896 5895 5895 5895 5895 5894 5893 5892 5891 5890 5889 5889 5889 5889 5889 5889 5890 5890 5889 5889 5889 5888 5888 5887 5886 5885 5884 5883 5882 5881 5880 5880 5879 5879 5879 5879 5879 5880 5880 5880 5880
5891 5893 5894 5895 5896 5897 5898 5897 5896 5896 5896 5896 5896 5895 5894 5893 5892 5891 5890 5890 5889 5889 5889 5889 5889 5889 5889 5889 5888 5888 5887 5887 5886 5886 5885 5883 5882 5881 5880 5879 5879 5878 5878 5878 5878 5879 5879 5879 5879
5891 5893 5893 5894 5895 5897 5897 5897 5897 5896 5896 5896 5896 5895 5894 5893 5892 5892 5891 5890 5889 5889 5888 5888 5888 5888 5888 5888 5888 5887 5887 5886 5886 5885 5884 5883 5882 5881 5880 5879 5878 5878 5877 5877 5877 5877 5877 5877 5878
5890 5891 5892 5893 5894 5895 5896 5896 5896 5896 5896 5896 5895 5895 5894 5893 5892 5892 5891 5890 5889 5888 5887 5887 5887 5887 5886 5886 5886 5886 5886 5885 5885 5884 5883 5883 5882 5881 5880 5879 5878 5877 5877 5876 5876 5876 5876 5876 5876
5888 5890 5891 5892 5892 5893 5894 5895 5895 5895 5895 5895 5894 5893 5892 5891 5891 5891 5890 5889 5888 5887 5886 5886 5885 5885 5885 5885 5884 5884 5884 5883 5883 5883 5882 5881 5881 5880 5879 5878 5877 5876 5876 5875 5874 5874 5874 5874 5875
5886 5887 5888 5889 5890 5891 5891 5892 5893 5893 5893 5893 5893 5892 5891 5890 5889 5889 5888 5887 5886 5885 5884 5884 5883 5883 5883 5882 5882 5882 5882 5881 5881 5881 5880 5880 5879 5879 5878 5877 5876 5875 5874 5873 5873 5872 5872 5872 5873
5883 5885 5885 5886 5887 5887 5888 5889 5889 5890 5890 5890 5890 5890 5889 5888 5887 5886 5885 5884 5883 5883 5882 5881 5881 5880 5880 5880 5879 5879 5879 5879 5879 5878 5878 5878 5877 5877 5876 5875 5874 5874 5873 5872 5871 5870 5870 5870 5870
5881 5881 5882 5882 5883 5884 5884 5885 5885 5885 5886 5886 5887 5887 5886 5886 5885 5884 5883 5881 5881 5880 5879 5878 5878 5877 5877 5876 5876 5876 5876 5876 5876 5875 5875 5875 5875 5874 5874 5873 5872 5872 5871 5870 5869 5868 5868 5868 5868
5877 5878 5878 5879 5879 5879 5881 5881 5880 5880 5881 5881 5882 5882 5882 5882 5882 5880 5880 5879 5878 5876 5875 5875 5874 5874 5873 5873 5873 5873 5872 5872 5872 5872 5872 5872 5872 5871 5871 5871 5870 5869 5868 5867 5867 5866 5866 5865 5865
5874 5874 5874 5874 5874 5874 5877 5877 5875 5874 5875 5875 5875 5876 5876 5877 5877 5876 5875 5875 5874 5873 5872 5871 5870 5870 5870 5869 5869 5868 5868 5868 5868 5868 5868 5868 5868 5868 5868 5867 5866 5866 5865 5865 5864 5864 5863 5863 5862
5869 5869 5869 5869 5868 5868 5869 5870 5869 5868 5868 5868 5868 5869 5870 5871 5871 5871 5870 5870 5869 5869 5868 5867 5866 5866 5865 5865 5864 5864 5864 5864 5865 5865 5864 5864 5864 5864 5863 5863 5863 5862 5862 5862 5861 5861 5860 5860 5859
5863 5863 5863 5863 5862 5862 5862 5863 5861 5860 5860 5860 5861 5862 5863 5864 5865 5864 5864 5864 5864 5864 5863 5863 5862 5861 5861 5860 5859 5859 5859 5859 5860 5860 5860 5860 5860 5859 5859 5859 5858 5858 5858 5857 5857 5857 5857 5856 5856
5857 5856 5856 5855 5854 5854 5854 5854 5853 5851 5851 5852 5852 5853 5854 5856 5857 5857 5858 5858 5858 5858 5858 5858 5857 5856 5856 5855 5854 5854 5854 5854 5854 5854 5855 5855 5855 5855 5854 5854 5854 5854 5853 5853 5853 5852 5852 5852 5852
5849 5848 5848 5847 5845 5845 5845 5845 5843 5842 5842 5842 5843 5844 5845 5847 5848 5849 5850 5850 5851 5852 5852 5852 5852 5851 5850 5849 5849 5848 5848 5848 5848 5848 5848 5849 5849 5849 5849 5849 5849 5849 5849 5848 5847 5847 5847 5846 5846
5842 5840 5839 5838 5836 5835 5835 5836 5834 5832 5832 5832 5833 5833 5834 5836 5838 5839 5841 5842 5843 5844 5845 5845 5845 5845 5844 5843 5842 5841 5841 5841 5841 5842 5842 5843 5843 5843 5844 5844 5844 5844 5844 5843 5843 5842 5841 5841 5840
5834 5832 5830 5828 5827 5826 5826 5825 5825 5824 5823 5822 5822 5823 5824 5825 5827 5829 5830 5832 5834 5835 5836 5837 5838 5837 5837 5836 5835 5834 5834 5834 5835 5836 5837 5837 5838 5838 5838 5838 5838 5838 5838 5838 5837 5836 5836 5835 5835
5825 5823 5821 5819 5817 5817 5816 5815 5816 5816 5815 5814 5813 5813 5814 5815 5816 5818 5820 5822 5824 5825 5827 5828 5829 5829 5829 5829 5828 5826 5825 5826 5828 5830 5831 5831 5832 5832 5832 5832 5832 5832 5831 5831 5831 5830 5830 5829 5828
5816 5814 5811 5810 5808 5807 5807 5806 5806 5806 5806 5805 5804 5804 5805 5805 5807 5808 5810 5812 5814 5815 5817 5818 5820 5820 5820 5820 5820 5819 5818 5820 5822 5824 5824 5825 5826 5826 5826 5826 5826 5826 5825 5824 5824 5824 5824 5823 5823
5805 5803 5800 5798 5797 5797 5797 5797 5798 5797 5797 5797 5797 5797 5797 5797 5798 5799 5801 5802 5804 5805 5807 5809 5811 5811 5810 5810 5811 5811 5812 5814 5816 5817 5818 5819 5820 5820 5820 5820 5820 5819 5819 5818 5817 5817 5817 5817 5816
5794 5791 5789 5787 5786 5786 5787 5788 5790 5789 5789 5789 5789 5789 5789 5789 5790 5791 5792 5794 5795 5797 5799 5800 5801 5802 5801 5802 5803 5805 5806 5808 5810 5811 5812 5814 5814 5814 5814 5814 5814 5813 5812 5811 5811 5811 5811 5810 5810
5780 5777 5776 5775 5775 5777 5778 5780 5781 5782 5782 5782 5782 5782 5782 5782 5783 5784 5785 5786 5787 5788 5789 5791 5792 5794 5795 5796 5798 5799 5801 5803 5804 5805 5807 5808 5808 5808 5808 5808 5808 5807 5806 5805 5805 5804 5804 5804 5804
5768 5765 5764 5764 5765 5767 5770 5772 5775 5776 5776 5776 5776 5776 5776 5776 5777 5778 5780 5781 5781 5781 5781 5783 5785 5788 5790 5792 5794 5795 5797 5799 5800 5801 5802 5803 5803 5803 5803 5803 5802 5801 5800 5799 5799 5798 5798 5798 5798
5760 5757 5755 5756 5758 5761 5764 5769 5769 5771 5772 5772 5772 5772 5772 5772 5772 5773 5774 5775 5776 5777 5777 5779 5781 5784 5786 5789 5791 5792 5794 5795 5796 5796 5797 5797 5797 5797 5797 5797 5796 5795 5794 5794 5793 5793 5792 5792 5792
5754 5752 5751 5752 5754 5756 5760 5766 5766 5768 5768 5769 5769 5769 5769 5768 5769 5769 5770 5772 5773 5775 5776 5777 5780 5782 5784 5786 5788 5789 5791 5792 5792 5792 5792 5792 5792 5791 5791 5791 5790 5789 5788 5788 5787 5787 5786 5786 5786